DW1770 Weather Reports


time (UTC)temp
C
wind
direction
speed
KPH
gust
KPH
rain 1hr
cm
rain 24hr
cm
rain mn
cm
humidity
%
barometer
mb
20260504232029 20 268 1.6 6.4 0.00 0.00 0.00 35 1006.0
20260504231529 20 246 0.0 9.7 0.00 0.00 0.00 35 1005.9
20260504231029 20 250 4.8 9.7 0.00 0.00 0.00 34 1005.9
20260504230028 21 263 3.2 11.3 0.00 0.00 0.00 34 1005.8
20260504225752 21 223 3.2 12.9 0.00 0.00 0.00 26 1005.7
20260504225029 21 332 6.4 12.9 0.00 0.00 0.00 33 1005.6
20260504224030 21 269 3.2 11.3 0.00 0.00 0.00 33 1005.4
20260504223528 21 257 4.8 12.9 0.00 0.00 0.00 33 1005.4
20260504223028 21 205 3.2 12.9 0.00 0.00 0.00 24 1005.4
20260504222528 21 259 3.2 12.9 0.00 0.00 0.00 33 1005.4
20260504222250 22 271 4.8 16.1 0.00 0.00 0.00 31 1005.3
20260504221528 22 268 6.4 16.1 0.00 0.00 0.00 33 1005.3
20260504221028 22 292 6.4 16.1 0.00 0.00 0.00 33 1005.3
20260504220751 21 268 4.8 12.9 0.00 0.00 0.00 33 1005.4
20260504220029 21 215 6.4 16.1 0.00 0.00 0.00 31 1005.3
20260504215531 21 257 4.8 16.1 0.00 0.00 0.00 24 1005.4
20260504215029 21 225 4.8 14.5 0.00 0.00 0.00 33 1005.3
20260504214531 22 261 4.8 9.7 0.00 0.00 0.00 33 1005.4
20260504214029 22 145 3.2 9.7 0.00 0.00 0.00 32 1005.3
20260504213030 21 267 4.8 14.5 0.00 0.00 0.00 33 1005.5
20260504212531 21 316 6.4 20.9 0.00 0.00 0.00 33 1005.4
20260504212029 21 243 4.8 20.9 0.00 0.00 0.00 33 1005.4
20260504211530 21 275 4.8 16.1 0.00 0.00 0.00 33 1005.4
20260504211029 21 271 6.4 16.1 0.00 0.00 0.00 32 1005.3
20260504210753 21 254 6.4 16.1 0.00 0.00 0.00 31 1005.4
20260504210029 22 209 6.4 16.1 0.00 0.00 0.00 33 1005.4
20260504205529 22 264 6.4 16.1 0.00 0.00 0.00 23 1005.4
20260504205029 22 252 4.8 16.1 0.00 0.00 0.00 35 1005.4
20260504204530 22 267 4.8 17.7 0.00 0.00 0.00 33 1005.2
20260504204028 22 220 6.4 17.7 0.00 0.00 0.00 32 1005.3
20260504203750 21 279 3.2 16.1 0.00 0.00 0.00 33 1005.4
20260504203028 21 319 3.2 16.1 0.00 0.00 0.00 23 1005.3
20260504202530 21 261 4.8 22.5 0.00 0.00 0.00 32 1005.4
20260504201530 21 303 6.4 22.5 0.00 0.00 0.00 32 1005.3
20260504200530 21 259 6.4 17.7 0.00 0.00 0.00 33 1005.3
20260504200029 21 261 6.4 12.9 0.00 0.00 0.00 33 1005.3
20260504195804 22 286 4.8 12.9 0.00 0.00 0.00 22 1005.3
20260504195029 21 105 6.4 14.5 0.00 0.00 0.00 33 1005.3
20260504194530 22 220 4.8 19.3 0.00 0.00 0.00 31 1005.4
20260504194029 22 259 8.0 19.3 0.00 0.00 0.00 34 1005.3
20260504193530 21 205 6.4 22.5 0.00 0.00 0.00 33 1005.3
20260504193259 21 271 3.2 22.5 0.00 0.00 0.00 25 1005.4
20260504192529 21 266 8.0 20.9 0.00 0.00 0.00 31 1005.4
20260504192029 21 268 4.8 20.9 0.00 0.00 0.00 24 1005.5
20260504191529 21 299 6.4 16.1 0.00 0.00 0.00 32 1005.4
20260504191302 21 265 6.4 12.9 0.00 0.00 0.00 32 1005.3
20260504190529 21 312 6.4 17.7 0.00 0.00 0.00 32 1005.3
20260504190029 21 282 6.4 17.7 0.00 0.00 0.00 30 1005.4
20260504185757 21 265 4.8 14.5 0.00 0.00 0.00 27 1005.5
20260504185028 21 250 6.4 14.5 0.00 0.00 0.00 31 1005.5
20260504184529 21 156 6.4 19.3 0.00 0.00 0.00 32 1005.5
20260504184028 21 152 9.7 19.3 0.00 0.00 0.00 32 1005.5
20260504183750 21 15 9.7 19.3 0.00 0.00 0.00 29 1005.7
20260504183028 21 221 4.8 17.7 0.00 0.00 0.00 33 1005.6
20260504182530 20 277 6.4 17.7 0.00 0.00 0.00 31 1005.8
20260504182030 20 294 8.0 17.7 0.00 0.00 0.00 31 1005.8
20260504181531 20 228 6.4 24.1 0.00 0.00 0.00 32 1005.7
20260504181029 21 257 8.0 24.1 0.00 0.00 0.00 31 1005.8
20260504180530 21 263 6.4 17.7 0.00 0.00 0.00 30 1005.8
20260504180029 21 279 9.7 33.8 0.00 0.00 0.00 31 1005.9
20260504175530 21 266 12.9 33.8 0.00 0.00 0.00 25 1006.0
20260504175029 21 292 9.7 19.3 0.00 0.00 0.00 31 1005.8
20260504174530 21 311 8.0 17.7 0.00 0.00 0.00 22 1005.8
20260504174029 21 261 8.0 17.7 0.00 0.00 0.00 33 1005.9
20260504173530 21 297 8.0 29.0 0.00 0.00 0.00 30 1005.9
20260504172530 20 148 9.7 19.3 0.00 0.00 0.00 32 1006.1
20260504172029 20 306 8.0 20.9 0.00 0.00 0.00 34 1006.1
20260504171530 20 315 11.3 20.9 0.00 0.00 0.00 32 1006.1
20260504171029 20 190 6.4 19.3 0.00 0.00 0.00 33 1006.1
20260504170755 20 263 4.8 24.1 0.00 0.00 0.00 33 1006.3
20260504170251 20 254 8.0 24.1 0.00 0.00 0.00 33 1006.3
20260504151029 18 300 6.4 19.3 0.00 0.00 0.00 39 1007.4
20260504150530 18 247 9.7 19.3 0.00 0.00 0.00 29 1007.3
20260504141029 16 259 9.7 27.4 0.00 0.00 0.00 32 1008.2
20260504140530 16 262 6.4 17.7 0.00 0.00 0.00 41 1008.2
20260504130752 13 246 4.8 12.9 0.00 0.00 0.00 48 1008.7
20260504081528 5 255 1.6 3.2 0.00 0.03 0.00 69 1009.2
20260504081028 5 255 0.0 3.2 0.00 0.03 0.00 69 1009.1
20260504080530 5 255 1.6 4.8 0.00 0.03 0.00 69 1009.1
20260504080249 5 255 1.6 4.8 0.00 0.03 0.00 69 1009.1
20260504070253 5 254 0.0 4.8 0.00 0.03 0.00 68 1009.2
20260504050528 3 265 0.0 1.6 0.00 0.03 0.00 78 1009.1
20260504045530 2 285 0.0 0.0 0.00 0.03 0.00 78 1009.3
20260504045253 2 285 0.0 1.6 0.00 0.03 0.00 79 1009.3
20260504044753 2 285 0.0 1.6 0.00 0.03 0.00 79 1009.2
20260504044254 2 285 0.0 1.6 0.00 0.03 0.00 78 1009.3
20260504043529 2 285 0.0 1.6 0.00 0.03 0.00 77 1009.3
20260504043254 2 285 0.0 1.6 0.00 0.03 0.00 76 1009.2
20260504042750 2 285 0.0 0.0 0.00 0.03 0.00 76 1009.3
20260504042031 2 285 0.0 0.0 0.00 0.03 0.00 76 1009.2
20260504041749 2 285 0.0 0.0 0.00 0.03 0.00 76 1009.2
20260504041301 2 285 0.0 0.0 0.00 0.03 0.00 76 1009.2
20260504040529 2 285 0.0 1.6 0.00 0.03 0.00 76 1009.0
20260504040259 2 285 0.0 1.6 0.00 0.03 0.00 75 1009.2
20260504035749 2 0 0.0 0.0 0.00 0.03 0.03 75 1009.1
20260504035031 2 0 0.0 0.0 0.00 0.03 0.03 74 1009.1
20260504034530 3 0 0.0 0.0 0.00 0.03 0.03 74 1009.1
20260504034030 3 0 0.0 0.0 0.00 0.03 0.03 73 1009.0
20260504033529 3 0 0.0 0.0 0.00 0.03 0.03 72 1009.1
20260504033031 3 0 0.0 0.0 0.00 0.03 0.03 72 1009.1
20260504032753 3 0 0.0 0.0 0.00 0.03 0.03 72 1009.0
20260504032255 3 0 0.0 0.0 0.00 0.03 0.03 71 1009.1
20260504031529 3 0 0.0 0.0 0.00 0.03 0.03 71 1009.0
20260504031030 3 0 0.0 0.0 0.00 0.03 0.03 71 1009.0
20260504030529 3 0 0.0 0.0 0.00 0.03 0.03 71 1009.0
20260504030030 3 0 0.0 0.0 0.00 0.03 0.03 70 1009.1
20260504025529 3 0 0.0 0.0 0.00 0.03 0.03 70 1009.1
20260504025030 3 0 0.0 0.0 0.00 0.03 0.03 68 1009.0
20260504024529 3 0 0.0 0.0 0.00 0.03 0.03 68 1009.0
20260504024030 3 0 0.0 0.0 0.00 0.03 0.03 68 1008.9
20260504023529 3 0 0.0 0.0 0.00 0.03 0.03 68 1008.9
20260504023030 3 0 0.0 0.0 0.00 0.03 0.03 66 1008.9
20260504022529 4 0 0.0 0.0 0.00 0.03 0.03 66 1008.9
20260504022030 4 0 0.0 0.0 0.00 0.03 0.03 66 1009.0
20260504021530 4 0 0.0 0.0 0.00 0.03 0.03 66 1009.0
20260504020528 5 0 0.0 0.0 0.00 0.03 0.03 65 1008.9
20260504014722 5 285 0.0 0.0 0.00 0.03 0.03 62 1008.7
20260504014003 5 285 0.0 0.0 0.00 0.03 0.03 61 1008.6
20260504013500 5 285 0.0 0.0 0.00 0.03 0.03 60 1008.6
20260504013003 5 285 0.0 0.0 0.00 0.03 0.03 61 1008.6
20260504012002 6 285 0.0 0.0 0.00 0.03 0.03 60 1008.6
20260504011500 6 285 0.0 0.0 0.00 0.03 0.03 60 1008.6
20260504011232 6 285 0.0 0.0 0.00 0.03 0.03 58 1008.5
20260504010500 6 285 0.0 0.0 0.00 0.03 0.03 59 1008.5
20260504010005 6 285 0.0 0.0 0.00 0.03 0.03 58 1008.4
20260504005723 6 285 0.0 0.0 0.00 0.03 0.03 57 1008.3
20260504005002 6 285 0.0 0.0 0.00 0.03 0.03 57 1008.3
20260504004502 7 285 0.0 0.0 0.00 0.03 0.03 57 1008.1
20260504004226 7 285 0.0 0.0 0.00 0.03 0.03 56 1008.1
20260504003501 7 285 0.0 1.6 0.00 0.03 0.03 54 1008.1
20260504003226 7 285 0.0 1.6 0.00 0.03 0.03 53 1008.1
20260504002502 7 285 0.0 1.6 0.00 0.03 0.03 52 1008.0
20260504002003 7 285 0.0 3.2 0.00 0.03 0.03 51 1008.0
20260504001501 8 285 0.0 3.2 0.00 0.05 0.03 51 1008.0
20260504001004 8 283 0.0 4.8 0.00 0.05 0.03 51 1007.9
20260504000722 8 283 1.6 4.8 0.00 0.05 0.03 50 1007.8
20260503235502 8 308 1.6 6.4 0.00 0.05 0.03 49 1007.7
20260503235003 8 302 1.6 6.4 0.00 0.05 0.03 47 1007.7
20260503234501 9 323 3.2 6.4 0.00 0.05 0.03 46 1007.7
20260503234003 9 325 1.6 9.7 0.00 0.05 0.03 46 1007.6
20260503233501 9 355 3.2 12.9 0.00 0.05 0.03 45 1007.4
20260503233227 9 355 4.8 12.9 0.00 0.05 0.03 45 1007.5